User: anonymous   Login
Location: Betpouey
(42.8833°N, 0.0333°E)
Time: 18:40:58
(UTC+00:00)
Language:

deb Kosmos-1375 - Orbit

View from above orbital plane
View from above orbital plane
View from above satellite
View from above satellite

Ground track
Ground track

The orbit data is extracted from the following two-line orbital elements,

1 16379U 82055T   21172.45278611 -.00000077  00000-0  40650-5 0  9998
2 16379  65.8380  70.3084 0027895 274.5836 260.2350 13.77954870374087
Epoch (UTC): 21 June 2021 10:52:00
Eccentricity: 0.0027895
inclination: 65.8380°
perigee height: 950 km
apogee height: 991 km
right ascension of ascending node: 70.3084°
argument of perigee: 274.5836°
revolutions per day: 13.77954870
mean anomaly at epoch: 260.2350°
orbit number at epoch: 37408

The dashed part of the orbit path shows where the satellite is in the earth's shadow,  

DLR